Time,TemperatureF,DewpointF,PressureIn,WindDirection,WindDirectionDegrees,WindSpeedMPH,WindSpeedGustMPH,Humidity,HourlyPrecipIn,Conditions,Clouds,dailyrainin,SoftwareType,DateUTC
2013-01-08 00:00:00,69.1,67.6,30.12,NE,52,6.0,10.0,95,0.00,,,0.00,VWS V14.01,2013-01-08 06:00:00,
2013-01-08 00:01:00,69.2,67.7,30.12,NE,34,9.0,10.0,95,0.00,,,0.00,VWS V14.01,2013-01-08 06:01:00,
2013-01-08 00:06:00,69.2,68.0,30.12,NE,42,6.0,10.0,96,0.00,,,0.00,VWS V14.01,2013-01-08 06:06:00,
2013-01-08 00:11:00,69.3,68.1,30.11,NE,49,10.0,11.0,96,0.00,,,0.00,VWS V14.01,2013-01-08 06:11:00,
2013-01-08 00:16:00,69.3,68.1,30.11,NNE,25,9.0,11.0,96,0.00,,,0.00,VWS V14.01,2013-01-08 06:16:00,
2013-01-08 00:21:00,69.3,68.1,30.11,NNE,30,4.0,11.0,96,0.00,,,0.00,VWS V14.01,2013-01-08 06:21:00,
2013-01-08 00:26:00,69.3,68.1,30.11,NE,56,1.0,11.0,96,0.00,,,0.00,VWS V14.01,2013-01-08 06:26:00,
2013-01-08 00:30:00,69.3,68.1,30.11,NE,51,6.0,11.0,96,0.00,,,0.00,VWS V14.01,2013-01-08 06:30:00,
2013-01-08 00:31:00,69.3,68.1,30.12,North,8,1.0,6.0,96,0.00,,,0.00,VWS V14.01,2013-01-08 06:31:00,
2013-01-08 00:36:00,69.4,68.2,30.12,NE,43,2.0,6.0,96,0.00,,,0.00,VWS V14.01,2013-01-08 06:36:00,
2013-01-08 00:41:00,69.4,68.2,30.12,NE,34,1.0,6.0,96,0.00,,,0.00,VWS V14.01,2013-01-08 06:41:00,
2013-01-08 00:46:00,69.4,68.2,30.11,NNE,15,2.0,6.0,96,0.00,,,0.00,VWS V14.01,2013-01-08 06:46:00,
2013-01-08 00:51:00,69.4,68.2,30.11,NE,46,3.0,7.0,96,0.00,,,0.00,VWS V14.01,2013-01-08 06:51:00,
2013-01-08 00:56:00,69.4,68.2,30.12,ENE,67,3.0,7.0,96,0.00,,,0.00,VWS V14.01,2013-01-08 06:56:00,
2013-01-08 01:00:00,69.4,68.2,30.12,NE,51,2.0,7.0,96,0.00,,,0.00,VWS V14.01,2013-01-08 07:00:00,
2013-01-08 01:01:00,69.5,68.3,30.12,ENE,61,3.0,4.0,96,0.00,,,0.00,VWS V14.01,2013-01-08 07:01:00,
2013-01-08 01:06:00,69.6,68.4,30.11,East,88,2.0,4.0,96,0.00,,,0.00,VWS V14.01,2013-01-08 07:06:00,
2013-01-08 01:11:00,69.7,68.5,30.11,East,82,1.0,7.0,96,0.00,,,0.00,VWS V14.01,2013-01-08 07:11:00,
2013-01-08 01:16:00,69.6,68.1,30.11,ESE,113,4.0,7.0,95,0.00,,,0.00,VWS V14.01,2013-01-08 07:16:00,
2013-01-08 01:21:00,69.5,68.0,30.11,ESE,117,2.0,7.0,95,0.00,,,0.00,VWS V14.01,2013-01-08 07:21:00,
2013-01-08 01:26:00,69.4,67.9,30.11,ESE,115,2.0,7.0,95,0.00,,,0.00,VWS V14.01,2013-01-08 07:26:00,
2013-01-08 01:30:00,69.4,67.9,30.11,SE,132,3.0,7.0,95,0.00,,,0.00,VWS V14.01,2013-01-08 07:30:00,
2013-01-08 01:31:00,69.3,67.8,30.11,ESE,107,1.0,3.0,95,0.00,,,0.00,VWS V14.01,2013-01-08 07:31:00,
2013-01-08 01:36:00,69.3,67.8,30.11,ESE,102,0.0,3.0,95,0.00,,,0.00,VWS V14.01,2013-01-08 07:36:00,
2013-01-08 01:41:00,69.2,67.7,30.10,East,101,0.0,3.0,95,0.00,,,0.00,VWS V14.01,2013-01-08 07:41:00,
2013-01-08 01:46:00,69.2,67.7,30.10,ENE,70,1.0,3.0,95,0.00,,,0.00,VWS V14.01,2013-01-08 07:46:00,
2013-01-08 01:51:00,69.2,67.7,30.10,ENE,63,0.0,3.0,95,0.00,,,0.00,VWS V14.01,2013-01-08 07:51:00,
2013-01-08 01:56:00,69.1,67.9,30.11,ENE,63,0.0,3.0,96,0.00,,,0.00,VWS V14.01,2013-01-08 07:56:00,
2013-01-08 02:00:00,69.1,67.9,30.11,ENE,63,0.0,3.0,96,0.00,,,0.00,VWS V14.01,2013-01-08 08:00:00,
2013-01-08 02:01:00,69.1,67.9,30.11,ENE,63,0.0,0.0,96,0.00,,,0.00,VWS V14.01,2013-01-08 08:01:00,
2013-01-08 02:06:00,69.0,67.8,30.11,ENE,64,0.0,0.0,96,0.00,,,0.00,VWS V14.01,2013-01-08 08:06:00,
2013-01-08 02:11:00,68.9,67.7,30.11,ENE,63,0.0,0.0,96,0.00,,,0.00,VWS V14.01,2013-01-08 08:11:00,
2013-01-08 02:16:00,68.9,67.7,30.10,ENE,64,0.0,0.0,96,0.00,,,0.00,VWS V14.01,2013-01-08 08:16:00,
2013-01-08 02:21:00,68.9,67.7,30.10,SSE,148,0.0,4.0,96,0.00,,,0.00,VWS V14.01,2013-01-08 08:21:00,
2013-01-08 02:26:00,68.9,67.7,30.10,ESE,102,1.0,4.0,96,0.00,,,0.00,VWS V14.01,2013-01-08 08:26:00,
2013-01-08 02:30:00,69.0,67.8,30.10,ESE,107,0.0,4.0,96,0.00,,,0.00,VWS V14.01,2013-01-08 08:30:00,
2013-01-08 02:31:00,69.0,67.8,30.10,ESE,110,2.0,2.0,96,0.00,,,0.00,VWS V14.01,2013-01-08 08:31:00,
2013-01-08 02:36:00,69.2,68.0,30.10,ESE,120,2.0,3.0,96,0.00,,,0.00,VWS V14.01,2013-01-08 08:36:00,
2013-01-08 02:41:00,69.3,67.8,30.10,ESE,102,1.0,4.0,95,0.00,,,0.00,VWS V14.01,2013-01-08 08:41:00,
2013-01-08 02:46:00,69.5,68.0,30.10,ESE,102,2.0,4.0,95,0.00,,,0.00,VWS V14.01,2013-01-08 08:46:00,
2013-01-08 02:51:00,69.8,68.0,30.10,ESE,105,1.0,5.0,94,0.00,,,0.00,VWS V14.01,2013-01-08 08:51:00,
2013-01-08 02:56:00,70.1,68.3,30.10,ESE,109,2.0,5.0,94,0.00,,,0.00,VWS V14.01,2013-01-08 08:56:00,
2013-01-08 03:00:00,70.2,68.4,30.10,ESE,120,2.0,5.0,94,0.00,,,0.00,VWS V14.01,2013-01-08 09:00:00,
2013-01-08 03:01:00,70.3,68.5,30.10,ESE,120,2.0,4.0,94,0.00,,,0.00,VWS V14.01,2013-01-08 09:01:00,
2013-01-08 03:06:00,70.4,68.6,30.10,ESE,110,3.0,4.0,94,0.00,,,0.00,VWS V14.01,2013-01-08 09:06:00,
2013-01-08 03:11:00,70.4,68.6,30.10,ESE,121,1.0,5.0,94,0.00,,,0.00,VWS V14.01,2013-01-08 09:11:00,
2013-01-08 03:16:00,70.5,68.7,30.10,SE,125,1.0,5.0,94,0.00,,,0.00,VWS V14.01,2013-01-08 09:16:00,
2013-01-08 03:21:00,70.4,68.6,30.10,SE,146,0.0,5.0,94,0.00,,,0.00,VWS V14.01,2013-01-08 09:21:00,
2013-01-08 03:26:00,70.3,68.5,30.10,SSW,203,0.0,5.0,94,0.00,,,0.00,VWS V14.01,2013-01-08 09:26:00,
2013-01-08 03:30:00,70.2,68.4,30.10,SSW,212,1.0,5.0,94,0.00,,,0.00,VWS V14.01,2013-01-08 09:30:00,
2013-01-08 03:31:00,70.1,68.3,30.10,SE,145,1.0,3.0,94,0.00,,,0.00,VWS V14.01,2013-01-08 09:31:00,
2013-01-08 03:36:00,69.9,68.1,30.10,SE,139,0.0,3.0,94,0.00,,,0.00,VWS V14.01,2013-01-08 09:36:00,
2013-01-08 03:41:00,69.7,67.9,30.10,SE,141,0.0,3.0,94,0.00,,,0.00,VWS V14.01,2013-01-08 09:41:00,
2013-01-08 03:46:00,69.7,67.9,30.10,SE,141,0.0,3.0,94,0.00,,,0.00,VWS V14.01,2013-01-08 09:46:00,
2013-01-08 03:51:00,69.7,67.9,30.10,SE,141,0.0,3.0,94,0.00,,,0.00,VWS V14.01,2013-01-08 09:51:00,
2013-01-08 03:56:00,69.6,67.8,30.10,SE,141,0.0,3.0,94,0.00,,,0.00,VWS V14.01,2013-01-08 09:56:00,
2013-01-08 04:00:00,69.6,67.8,30.11,SE,141,0.0,3.0,94,0.00,,,0.00,VWS V14.01,2013-01-08 10:00:00,
2013-01-08 04:01:00,69.6,67.8,30.11,SE,143,0.0,0.0,94,0.00,,,0.00,VWS V14.01,2013-01-08 10:01:00,
2013-01-08 04:06:00,69.9,68.1,30.11,East,82,1.0,2.0,94,0.00,,,0.00,VWS V14.01,2013-01-08 10:06:00,
2013-01-08 04:11:00,70.2,68.1,30.11,ENE,68,0.0,2.0,93,0.00,,,0.00,VWS V14.01,2013-01-08 10:11:00,
2013-01-08 04:16:00,70.2,68.1,30.11,ENE,65,2.0,2.0,93,0.00,,,0.00,VWS V14.01,2013-01-08 10:16:00,
2013-01-08 04:21:00,70.1,68.0,30.11,NE,40,2.0,2.0,93,0.00,,,0.00,VWS V14.01,2013-01-08 10:21:00,
2013-01-08 04:26:00,70.1,68.3,30.11,NE,40,1.0,2.0,94,0.00,,,0.00,VWS V14.01,2013-01-08 10:26:00,
2013-01-08 04:30:00,70.1,68.3,30.11,NE,40,0.0,2.0,94,0.00,,,0.00,VWS V14.01,2013-01-08 10:30:00,
2013-01-08 04:31:00,70.0,68.2,30.11,NNE,18,1.0,1.0,94,0.00,,,0.00,VWS V14.01,2013-01-08 10:31:00,
2013-01-08 04:36:00,69.9,68.1,30.11,NNE,13,1.0,1.0,94,0.00,,,0.00,VWS V14.01,2013-01-08 10:36:00,
2013-01-08 04:41:00,69.8,68.0,30.11,NNE,13,0.0,1.0,94,0.00,,,0.00,VWS V14.01,2013-01-08 10:41:00,
2013-01-08 04:46:00,69.6,67.8,30.11,NNE,13,1.0,1.0,94,0.00,,,0.00,VWS V14.01,2013-01-08 10:46:00,
2013-01-08 04:51:00,69.6,68.1,30.11,NNE,13,1.0,1.0,95,0.00,,,0.00,VWS V14.01,2013-01-08 10:51:00,
2013-01-08 04:56:00,69.6,68.1,30.11,NNE,15,0.0,1.0,95,0.00,,,0.00,VWS V14.01,2013-01-08 10:56:00,
2013-01-08 05:00:00,69.6,68.1,30.11,ENE,68,1.0,1.0,95,0.00,,,0.00,VWS V14.01,2013-01-08 11:00:00,
2013-01-08 05:01:00,69.5,68.0,30.11,ENE,68,1.0,2.0,95,0.00,,,0.00,VWS V14.01,2013-01-08 11:01:00,
2013-01-08 05:06:00,69.4,67.9,30.12,ENE,68,0.0,2.0,95,0.00,,,0.00,VWS V14.01,2013-01-08 11:06:00,
2013-01-08 05:11:00,69.4,68.2,30.12,ENE,68,0.0,2.0,96,0.00,,,0.00,VWS V14.01,2013-01-08 11:11:00,
2013-01-08 05:16:00,69.3,68.1,30.12,ENE,68,0.0,2.0,96,0.00,,,0.00,VWS V14.01,2013-01-08 11:16:00,
2013-01-08 05:21:00,69.3,68.1,30.13,ENE,68,0.0,2.0,96,0.00,,,0.00,VWS V14.01,2013-01-08 11:21:00,
2013-01-08 05:26:00,69.2,68.0,30.13,ENE,68,0.0,2.0,96,0.00,,,0.00,VWS V14.01,2013-01-08 11:26:00,
2013-01-08 05:30:00,69.0,67.5,30.13,ENE,68,0.0,2.0,95,0.00,,,0.00,VWS V14.01,2013-01-08 11:30:00,
2013-01-08 05:31:00,68.9,67.7,30.13,ENE,68,0.0,0.0,96,0.00,,,0.00,VWS V14.01,2013-01-08 11:31:00,
2013-01-08 05:36:00,68.6,67.4,30.13,ENE,67,1.0,1.0,96,0.00,,,0.00,VWS V14.01,2013-01-08 11:36:00,
2013-01-08 05:41:00,68.4,67.2,30.14,NE,52,0.0,1.0,96,0.00,,,0.00,VWS V14.01,2013-01-08 11:41:00,
2013-01-08 05:46:00,68.2,67.0,30.14,NE,52,0.0,1.0,96,0.00,,,0.00,VWS V14.01,2013-01-08 11:46:00,
2013-01-08 05:51:00,68.2,67.0,30.14,NE,52,0.0,1.0,96,0.00,,,0.00,VWS V14.01,2013-01-08 11:51:00,
2013-01-08 05:56:00,68.2,67.3,30.14,NE,53,0.0,1.0,97,0.00,,,0.00,VWS V14.01,2013-01-08 11:56:00,
2013-01-08 06:00:00,68.3,67.4,30.14,NE,53,0.0,1.0,97,0.00,,,0.00,VWS V14.01,2013-01-08 12:00:00,
2013-01-08 06:01:00,68.3,67.4,30.14,NE,53,0.0,0.0,97,0.00,,,0.00,VWS V14.01,2013-01-08 12:01:00,
2013-01-08 06:06:00,68.2,67.3,30.14,NE,52,0.0,0.0,97,0.00,,,0.00,VWS V14.01,2013-01-08 12:06:00,
2013-01-08 06:11:00,68.2,67.3,30.15,ENE,58,0.0,0.0,97,0.00,,,0.00,VWS V14.01,2013-01-08 12:11:00,
2013-01-08 06:16:00,68.6,68.0,30.15,ESE,107,0.0,0.0,98,0.00,,,0.00,VWS V14.01,2013-01-08 12:16:00,
2013-01-08 06:21:00,69.0,68.4,30.15,East,92,0.0,2.0,98,0.00,,,0.00,VWS V14.01,2013-01-08 12:21:00,
2013-01-08 06:26:00,69.3,68.7,30.15,ESE,121,7.0,10.0,98,0.00,,,0.00,VWS V14.01,2013-01-08 12:26:00,
2013-01-08 06:30:00,69.8,69.2,30.15,ESE,110,4.0,10.0,98,0.00,,,0.00,VWS V14.01,2013-01-08 12:30:00,
2013-01-08 06:31:00,70.1,69.5,30.15,ESE,113,6.0,10.0,98,0.00,,,0.00,VWS V14.01,2013-01-08 12:31:00,
2013-01-08 06:36:00,70.4,69.5,30.16,ESE,119,3.0,10.0,97,0.00,,,0.00,VWS V14.01,2013-01-08 12:36:00,
2013-01-08 06:41:00,70.6,69.7,30.16,SSE,148,6.0,10.0,97,0.00,,,0.00,VWS V14.01,2013-01-08 12:41:00,
2013-01-08 06:46:00,70.7,69.8,30.16,East,92,4.0,10.0,97,0.00,,,0.00,VWS V14.01,2013-01-08 12:46:00,
2013-01-08 06:51:00,70.8,69.6,30.17,SE,136,5.0,10.0,96,0.00,,,0.00,VWS V14.01,2013-01-08 12:51:00,
2013-01-08 06:56:00,70.7,69.5,30.17,SE,136,3.0,12.0,96,0.00,,,0.00,VWS V14.01,2013-01-08 12:56:00,
2013-01-08 07:00:00,70.7,69.5,30.17,ESE,102,5.0,12.0,96,0.00,,,0.00,VWS V14.01,2013-01-08 13:00:00,
2013-01-08 07:01:00,70.7,69.5,30.17,ESE,121,2.0,7.0,96,0.00,,,0.00,VWS V14.01,2013-01-08 13:01:00,
2013-01-08 07:06:00,70.7,69.5,30.18,SE,143,2.0,7.0,96,0.00,,,0.00,VWS V14.01,2013-01-08 13:06:00,
2013-01-08 07:11:00,70.7,69.5,30.18,SE,145,2.0,7.0,96,0.00,,,0.00,VWS V14.01,2013-01-08 13:11:00,
2013-01-08 07:16:00,70.7,69.5,30.18,SE,134,3.0,7.0,96,0.00,,,0.00,VWS V14.01,2013-01-08 13:16:00,
2013-01-08 07:21:00,70.6,69.4,30.18,SE,144,4.0,7.0,96,0.00,,,0.00,VWS V14.01,2013-01-08 13:21:00,
2013-01-08 07:26:00,70.5,69.3,30.18,SSE,160,1.0,7.0,96,0.00,,,0.00,VWS V14.01,2013-01-08 13:26:00,
2013-01-08 07:30:00,70.6,69.4,30.18,SE,146,4.0,7.0,96,0.00,,,0.00,VWS V14.01,2013-01-08 13:30:00,
2013-01-08 07:31:00,70.6,69.4,30.18,SE,139,2.0,5.0,96,0.00,,,0.00,VWS V14.01,2013-01-08 13:31:00,
2013-01-08 07:36:00,70.7,69.2,30.18,SW,214,2.0,9.0,95,0.00,,,0.00,VWS V14.01,2013-01-08 13:36:00,
2013-01-08 07:41:00,70.7,69.2,30.19,SSW,204,6.0,9.0,95,0.00,,,0.00,VWS V14.01,2013-01-08 13:41:00,
2013-01-08 07:46:00,70.8,69.3,30.19,ESE,118,3.0,9.0,95,0.00,,,0.00,VWS V14.01,2013-01-08 13:46:00,
2013-01-08 07:51:00,70.9,69.4,30.19,SE,134,1.0,9.0,95,0.00,,,0.00,VWS V14.01,2013-01-08 13:51:00,
2013-01-08 07:56:00,71.1,69.6,30.19,SW,228,2.0,9.0,95,0.00,,,0.00,VWS V14.01,2013-01-08 13:56:00,
2013-01-08 08:00:00,71.2,69.7,30.19,ESE,120,1.0,9.0,95,0.00,,,0.00,VWS V14.01,2013-01-08 14:00:00,
2013-01-08 08:01:00,71.2,69.4,30.20,SSW,207,2.0,5.0,94,0.00,,,0.00,VWS V14.01,2013-01-08 14:01:00,
2013-01-08 08:06:00,71.2,69.4,30.20,SSW,204,1.0,5.0,94,0.00,,,0.00,VWS V14.01,2013-01-08 14:06:00,
2013-01-08 08:11:00,71.2,69.4,30.20,SW,222,3.0,5.0,94,0.00,,,0.00,VWS V14.01,2013-01-08 14:11:00,
2013-01-08 08:16:00,71.4,69.6,30.20,SW,217,0.0,5.0,94,0.00,,,0.00,VWS V14.01,2013-01-08 14:16:00,
2013-01-08 08:21:00,71.5,69.4,30.20,SW,217,2.0,5.0,93,0.00,,,0.00,VWS V14.01,2013-01-08 14:21:00,
2013-01-08 08:26:00,71.5,69.4,30.20,SSW,200,2.0,5.0,93,0.00,,,0.00,VWS V14.01,2013-01-08 14:26:00,
2013-01-08 08:30:00,71.6,69.5,30.20,SSW,210,2.0,5.0,93,0.00,,,0.00,VWS V14.01,2013-01-08 14:30:00,
2013-01-08 08:31:00,71.7,69.6,30.20,SW,223,1.0,3.0,93,0.00,,,0.00,VWS V14.01,2013-01-08 14:31:00,
2013-01-08 08:36:00,71.8,69.7,30.20,SW,232,0.0,3.0,93,0.00,,,0.00,VWS V14.01,2013-01-08 14:36:00,
2013-01-08 08:41:00,72.2,70.1,30.21,SW,231,0.0,3.0,93,0.00,,,0.00,VWS V14.01,2013-01-08 14:41:00,
2013-01-08 08:46:00,72.5,70.1,30.21,SE,126,1.0,3.0,92,0.00,,,0.00,VWS V14.01,2013-01-08 14:46:00,
2013-01-08 08:51:00,72.8,70.0,30.21,East,79,1.0,4.0,91,0.00,,,0.00,VWS V14.01,2013-01-08 14:51:00,
2013-01-08 08:56:00,73.3,70.2,30.21,ENE,72,3.0,4.0,90,0.00,,,0.00,VWS V14.01,2013-01-08 14:56:00,
2013-01-08 09:00:00,73.4,69.3,30.21,East,85,3.0,7.0,87,0.00,,,0.00,VWS V14.01,2013-01-08 15:00:00,
2013-01-08 09:01:00,73.6,69.5,30.21,East,99,4.0,5.0,87,0.00,,,0.00,VWS V14.01,2013-01-08 15:01:00,
2013-01-08 09:06:00,74.0,69.6,30.21,ESE,122,4.0,5.0,86,0.00,,,0.00,VWS V14.01,2013-01-08 15:06:00,
2013-01-08 09:11:00,74.2,69.4,30.21,ESE,122,3.0,5.0,85,0.00,,,0.00,VWS V14.01,2013-01-08 15:11:00,
2013-01-08 09:16:00,74.2,69.1,30.21,ESE,117,5.0,8.0,84,0.00,,,0.00,VWS V14.01,2013-01-08 15:16:00,
2013-01-08 09:21:00,74.3,69.2,30.21,SE,128,5.0,8.0,84,0.00,,,0.00,VWS V14.01,2013-01-08 15:21:00,
2013-01-08 09:26:00,74.3,69.2,30.21,SE,127,4.0,8.0,84,0.00,,,0.00,VWS V14.01,2013-01-08 15:26:00,
2013-01-08 09:30:00,74.3,68.8,30.21,SE,134,8.0,8.0,83,0.00,,,0.00,VWS V14.01,2013-01-08 15:30:00,
2013-01-08 09:31:00,74.2,68.7,30.21,SE,136,5.0,10.0,83,0.00,,,0.00,VWS V14.01,2013-01-08 15:31:00,
2013-01-08 09:36:00,74.2,69.1,30.21,ESE,102,2.0,10.0,84,0.00,,,0.00,VWS V14.01,2013-01-08 15:36:00,
2013-01-08 09:41:00,74.1,69.0,30.21,SSE,150,4.0,10.0,84,0.00,,,0.00,VWS V14.01,2013-01-08 15:41:00,
2013-01-08 09:46:00,74.2,68.7,30.21,SE,138,6.0,10.0,83,0.00,,,0.00,VWS V14.01,2013-01-08 15:46:00,
2013-01-08 09:51:00,74.2,69.1,30.21,SSE,150,4.0,10.0,84,0.00,,,0.00,VWS V14.01,2013-01-08 15:51:00,
2013-01-08 09:56:00,74.2,69.1,30.21,SE,135,6.0,10.0,84,0.00,,,0.00,VWS V14.01,2013-01-08 15:56:00,
2013-01-08 10:00:00,74.3,69.2,30.21,SSE,148,2.0,10.0,84,0.00,,,0.00,VWS V14.01,2013-01-08 16:00:00,
2013-01-08 10:01:00,74.4,69.3,30.20,ESE,119,5.0,5.0,84,0.00,,,0.00,VWS V14.01,2013-01-08 16:01:00,
2013-01-08 10:06:00,74.5,69.0,30.20,ESE,102,8.0,10.0,83,0.00,,,0.00,VWS V14.01,2013-01-08 16:06:00,
2013-01-08 10:11:00,74.9,69.4,30.20,ESE,119,6.0,10.0,83,0.00,,,0.00,VWS V14.01,2013-01-08 16:11:00,
2013-01-08 10:16:00,75.1,69.2,30.20,ESE,106,7.0,10.0,82,0.00,,,0.00,VWS V14.01,2013-01-08 16:16:00,
2013-01-08 10:21:00,75.2,69.3,30.20,ESE,111,6.0,10.0,82,0.00,,,0.00,VWS V14.01,2013-01-08 16:21:00,
2013-01-08 10:26:00,75.0,69.1,30.20,East,98,5.0,10.0,82,0.00,,,0.00,VWS V14.01,2013-01-08 16:26:00,
2013-01-08 10:30:00,75.0,69.5,30.20,ESE,113,5.0,10.0,83,0.00,,,0.00,VWS V14.01,2013-01-08 16:30:00,
2013-01-08 10:31:00,75.0,69.5,30.19,SE,141,2.0,5.0,83,0.00,,,0.00,VWS V14.01,2013-01-08 16:31:00,
2013-01-08 10:36:00,74.9,69.4,30.19,SE,124,3.0,8.0,83,0.00,,,0.00,VWS V14.01,2013-01-08 16:36:00,
2013-01-08 10:41:00,74.9,69.4,30.19,SE,134,8.0,8.0,83,0.00,,,0.00,VWS V14.01,2013-01-08 16:41:00,
2013-01-08 10:46:00,74.9,69.7,30.19,ESE,115,4.0,9.0,84,0.00,,,0.00,VWS V14.01,2013-01-08 16:46:00,
2013-01-08 10:51:00,74.7,69.6,30.19,ESE,121,3.0,9.0,84,0.00,,,0.00,VWS V14.01,2013-01-08 16:51:00,
2013-01-08 10:56:00,74.6,69.4,30.19,South,181,3.0,9.0,84,0.00,,,0.00,VWS V14.01,2013-01-08 16:56:00,
2013-01-08 11:00:00,74.6,69.4,30.18,SSE,150,0.0,9.0,84,0.00,,,0.00,VWS V14.01,2013-01-08 17:00:00,
2013-01-08 11:01:00,74.7,69.9,30.18,ESE,117,1.0,2.0,85,0.00,,,0.00,VWS V14.01,2013-01-08 17:01:00,
2013-01-08 11:06:00,74.8,69.7,30.18,ESE,106,3.0,4.0,84,0.00,,,0.00,VWS V14.01,2013-01-08 17:06:00,
2013-01-08 11:11:00,74.8,69.7,30.18,East,95,2.0,4.0,84,0.00,,,0.00,VWS V14.01,2013-01-08 17:11:00,
2013-01-08 11:16:00,75.0,69.8,30.17,East,94,2.0,5.0,84,0.00,,,0.00,VWS V14.01,2013-01-08 17:16:00,
2013-01-08 11:21:00,75.4,69.9,30.17,ENE,58,2.0,5.0,83,0.00,,,0.00,VWS V14.01,2013-01-08 17:21:00,
2013-01-08 11:26:00,75.7,69.5,30.17,East,79,5.0,7.0,81,0.00,,,0.00,VWS V14.01,2013-01-08 17:26:00,
2013-01-08 11:30:00,75.6,69.4,30.17,ESE,120,5.0,7.0,81,0.00,,,0.00,VWS V14.01,2013-01-08 17:30:00,
2013-01-08 11:31:00,75.7,69.8,30.17,East,79,2.0,6.0,82,0.00,,,0.00,VWS V14.01,2013-01-08 17:31:00,
2013-01-08 11:36:00,76.1,69.8,30.17,ENE,77,2.0,6.0,81,0.00,,,0.00,VWS V14.01,2013-01-08 17:36:00,
2013-01-08 11:41:00,76.2,69.9,30.17,ENE,70,6.0,9.0,81,0.00,,,0.00,VWS V14.01,2013-01-08 17:41:00,
2013-01-08 11:46:00,77.0,70.7,30.17,East,84,8.0,9.0,81,0.00,,,0.00,VWS V14.01,2013-01-08 17:46:00,
2013-01-08 11:51:00,76.5,69.9,30.16,East,97,7.0,9.0,80,0.00,,,0.00,VWS V14.01,2013-01-08 17:51:00,
2013-01-08 11:56:00,76.2,69.9,30.16,ENE,61,3.0,9.0,81,0.00,,,0.00,VWS V14.01,2013-01-08 17:56:00,
2013-01-08 12:00:00,76.4,70.1,30.16,ENE,73,5.0,9.0,81,0.00,,,0.00,VWS V14.01,2013-01-08 18:00:00,
2013-01-08 12:01:00,76.3,70.1,30.16,East,98,2.0,7.0,81,0.00,,,0.00,VWS V14.01,2013-01-08 18:01:00,
2013-01-08 12:06:00,76.1,70.2,30.16,ENE,65,4.0,10.0,82,0.00,,,0.00,VWS V14.01,2013-01-08 18:06:00,
2013-01-08 12:11:00,75.9,70.4,30.16,East,95,9.0,10.0,83,0.00,,,0.00,VWS V14.01,2013-01-08 18:11:00,
2013-01-08 12:16:00,75.8,70.3,30.16,ESE,117,5.0,11.0,83,0.00,,,0.00,VWS V14.01,2013-01-08 18:16:00,
2013-01-08 12:21:00,76.1,70.6,30.16,ENE,77,3.0,11.0,83,0.00,,,0.00,VWS V14.01,2013-01-08 18:21:00,
2013-01-08 12:26:00,76.4,70.5,30.16,ESE,102,6.0,11.0,82,0.00,,,0.00,VWS V14.01,2013-01-08 18:26:00,
2013-01-08 12:30:00,76.3,70.8,30.16,East,80,5.0,11.0,83,0.00,,,0.00,VWS V14.01,2013-01-08 18:30:00,
2013-01-08 12:31:00,76.1,70.2,30.16,East,81,4.0,8.0,82,0.00,,,0.00,VWS V14.01,2013-01-08 18:31:00,
2013-01-08 12:36:00,76.0,70.5,30.16,East,98,2.0,8.0,83,0.00,,,0.00,VWS V14.01,2013-01-08 18:36:00,
2013-01-08 12:41:00,76.3,71.1,30.16,ENE,71,2.0,8.0,84,0.00,,,0.00,VWS V14.01,2013-01-08 18:41:00,
2013-01-08 12:46:00,76.5,70.6,30.15,ESE,102,4.0,9.0,82,0.00,,,0.00,VWS V14.01,2013-01-08 18:46:00,
2013-01-08 12:51:00,76.3,70.8,30.15,ESE,113,4.0,9.0,83,0.00,,,0.00,VWS V14.01,2013-01-08 18:51:00,
2013-01-08 12:56:00,76.5,71.3,30.15,East,95,6.0,9.0,84,0.00,,,0.00,VWS V14.01,2013-01-08 18:56:00,
2013-01-08 13:00:00,76.6,71.4,30.15,ENE,67,5.0,10.0,84,0.00,,,0.00,VWS V14.01,2013-01-08 19:00:00,
2013-01-08 13:01:00,76.7,71.2,30.15,ENE,63,7.0,9.0,83,0.00,,,0.00,VWS V14.01,2013-01-08 19:01:00,
2013-01-08 13:06:00,76.5,71.3,30.15,East,96,7.0,9.0,84,0.00,,,0.00,VWS V14.01,2013-01-08 19:06:00,
2013-01-08 13:11:00,76.6,71.4,30.15,SE,127,4.0,9.0,84,0.00,,,0.00,VWS V14.01,2013-01-08 19:11:00,
2013-01-08 13:16:00,76.8,71.6,30.15,ESE,113,5.0,9.0,84,0.00,,,0.00,VWS V14.01,2013-01-08 19:16:00,
2013-01-08 13:21:00,76.7,71.2,30.15,East,93,4.0,9.0,83,0.00,,,0.00,VWS V14.01,2013-01-08 19:21:00,
2013-01-08 13:26:00,76.4,70.9,30.15,East,89,2.0,9.0,83,0.00,,,0.00,VWS V14.01,2013-01-08 19:26:00,
2013-01-08 13:30:00,76.2,71.0,30.15,ENE,63,4.0,9.0,84,0.00,,,0.00,VWS V14.01,2013-01-08 19:30:00,
2013-01-08 13:31:00,76.2,71.0,30.15,East,92,2.0,5.0,84,0.00,,,0.00,VWS V14.01,2013-01-08 19:31:00,
2013-01-08 13:36:00,75.9,70.4,30.16,SE,143,10.0,19.0,83,0.00,,,0.00,VWS V14.01,2013-01-08 19:36:00,
2013-01-08 13:41:00,74.0,68.2,30.16,South,181,6.0,19.0,82,0.00,,,0.00,VWS V14.01,2013-01-08 19:41:00,
2013-01-08 13:46:00,72.3,67.9,30.16,SSE,147,5.0,19.0,86,0.00,,,0.00,VWS V14.01,2013-01-08 19:46:00,
2013-01-08 13:51:00,71.3,67.6,30.16,SSE,148,9.0,19.0,88,0.00,,,0.00,VWS V14.01,2013-01-08 19:51:00,
2013-01-08 13:56:00,70.6,67.2,30.16,SSE,165,3.0,19.0,89,0.01,,,0.01,VWS V14.01,2013-01-08 19:56:00,
2013-01-08 14:00:00,70.3,67.2,30.16,WSW,255,5.0,19.0,90,0.01,,,0.01,VWS V14.01,2013-01-08 20:00:00,
2013-01-08 14:01:00,70.2,67.4,30.16,SSW,212,1.0,5.0,91,0.01,,,0.01,VWS V14.01,2013-01-08 20:01:00,
2013-01-08 14:06:00,70.1,67.4,30.16,SE,145,2.0,5.0,91,0.01,,,0.01,VWS V14.01,2013-01-08 20:06:00,
2013-01-08 14:11:00,70.1,67.4,30.16,SSE,158,0.0,5.0,91,0.01,,,0.01,VWS V14.01,2013-01-08 20:11:00,
2013-01-08 14:16:00,70.2,67.4,30.15,ENE,68,0.0,5.0,91,0.01,,,0.01,VWS V14.01,2013-01-08 20:16:00,
2013-01-08 14:21:00,70.7,68.3,30.15,ENE,68,0.0,5.0,92,0.01,,,0.01,VWS V14.01,2013-01-08 20:21:00,
2013-01-08 14:26:00,71.0,68.6,30.15,NE,39,1.0,5.0,92,0.01,,,0.01,VWS V14.01,2013-01-08 20:26:00,
2013-01-08 14:30:00,71.2,68.4,30.15,NNE,18,1.0,5.0,91,0.01,,,0.01,VWS V14.01,2013-01-08 20:30:00,
2013-01-08 14:31:00,71.4,68.6,30.15,NNW,328,1.0,2.0,91,0.01,,,0.01,VWS V14.01,2013-01-08 20:31:00,
2013-01-08 14:36:00,71.7,68.6,30.15,WNW,284,0.0,3.0,90,0.01,,,0.01,VWS V14.01,2013-01-08 20:36:00,
2013-01-08 14:41:00,72.0,68.9,30.14,WNW,284,0.0,3.0,90,0.01,,,0.01,VWS V14.01,2013-01-08 20:41:00,
2013-01-08 14:46:00,72.8,69.7,30.15,WNW,284,0.0,3.0,90,0.01,,,0.01,VWS V14.01,2013-01-08 20:46:00,
2013-01-08 14:51:00,73.0,69.6,30.15,WNW,284,0.0,3.0,89,0.01,,,0.01,VWS V14.01,2013-01-08 20:51:00,
2013-01-08 14:56:00,73.2,69.4,30.15,WNW,287,0.0,3.0,88,0.01,,,0.01,VWS V14.01,2013-01-08 20:56:00,
2013-01-08 15:00:00,73.3,69.2,30.15,WNW,287,0.0,3.0,87,0.01,,,0.01,VWS V14.01,2013-01-08 21:00:00,
2013-01-08 15:01:00,73.4,69.3,30.15,WNW,287,0.0,0.0,87,0.00,,,0.01,VWS V14.01,2013-01-08 21:01:00,
2013-01-08 15:06:00,73.7,69.6,30.15,NE,50,2.0,3.0,87,0.00,,,0.01,VWS V14.01,2013-01-08 21:06:00,
2013-01-08 15:11:00,73.8,69.7,30.15,NE,51,3.0,3.0,87,0.00,,,0.01,VWS V14.01,2013-01-08 21:11:00,
2013-01-08 15:16:00,73.6,69.5,30.15,NE,44,2.0,4.0,87,0.00,,,0.01,VWS V14.01,2013-01-08 21:16:00,
2013-01-08 15:21:00,73.3,68.9,30.15,NE,36,2.0,4.0,86,0.00,,,0.01,VWS V14.01,2013-01-08 21:21:00,
2013-01-08 15:26:00,73.4,68.6,30.15,NE,49,1.0,4.0,85,0.00,,,0.01,VWS V14.01,2013-01-08 21:26:00,
2013-01-08 15:30:00,73.5,68.7,30.15,ENE,74,0.0,4.0,85,0.00,,,0.01,VWS V14.01,2013-01-08 21:30:00,
2013-01-08 15:31:00,73.7,68.9,30.15,ENE,74,0.0,0.0,85,0.00,,,0.01,VWS V14.01,2013-01-08 21:31:00,
2013-01-08 15:36:00,74.0,68.9,30.15,ENE,77,0.0,2.0,84,0.00,,,0.01,VWS V14.01,2013-01-08 21:36:00,
2013-01-08 15:41:00,74.1,68.6,30.15,ENE,74,0.0,2.0,83,0.00,,,0.01,VWS V14.01,2013-01-08 21:41:00,
2013-01-08 15:46:00,74.4,69.3,30.15,ENE,61,2.0,3.0,84,0.00,,,0.01,VWS V14.01,2013-01-08 21:46:00,
2013-01-08 15:51:00,74.4,68.9,30.15,East,82,3.0,6.0,83,0.00,,,0.01,VWS V14.01,2013-01-08 21:51:00,
2013-01-08 15:56:00,74.3,69.2,30.15,ENE,61,4.0,6.0,84,0.00,,,0.01,VWS V14.01,2013-01-08 21:56:00,
2013-01-08 16:00:00,74.3,69.2,30.16,NNE,33,6.0,6.0,84,0.00,,,0.01,VWS V14.01,2013-01-08 22:00:00,
2013-01-08 16:01:00,74.2,69.1,30.16,ENE,58,4.0,6.0,84,0.00,,,0.01,VWS V14.01,2013-01-08 22:01:00,
2013-01-08 16:06:00,74.1,69.3,30.16,NE,54,4.0,6.0,85,0.00,,,0.01,VWS V14.01,2013-01-08 22:06:00,
2013-01-08 16:11:00,73.8,69.0,30.16,ENE,63,3.0,6.0,85,0.00,,,0.01,VWS V14.01,2013-01-08 22:11:00,
2013-01-08 16:16:00,73.7,68.9,30.16,ENE,71,3.0,6.0,85,0.00,,,0.01,VWS V14.01,2013-01-08 22:16:00,
2013-01-08 16:21:00,73.5,68.7,30.16,ENE,70,3.0,6.0,85,0.00,,,0.01,VWS V14.01,2013-01-08 22:21:00,
2013-01-08 16:26:00,73.3,68.9,30.16,ENE,57,5.0,6.0,86,0.00,,,0.01,VWS V14.01,2013-01-08 22:26:00,
2013-01-08 16:30:00,73.2,68.8,30.16,ENE,57,3.0,6.0,86,0.00,,,0.01,VWS V14.01,2013-01-08 22:30:00,
2013-01-08 16:31:00,73.2,68.8,30.16,ENE,77,2.0,5.0,86,0.00,,,0.01,VWS V14.01,2013-01-08 22:31:00,
2013-01-08 16:36:00,73.0,68.9,30.16,East,86,4.0,6.0,87,0.00,,,0.01,VWS V14.01,2013-01-08 22:36:00,
2013-01-08 16:41:00,72.8,68.7,30.16,East,81,1.0,6.0,87,0.00,,,0.01,VWS V14.01,2013-01-08 22:41:00,
2013-01-08 16:46:00,72.7,68.9,30.17,ENE,74,5.0,6.0,88,0.00,,,0.01,VWS V14.01,2013-01-08 22:46:00,
2013-01-08 16:51:00,72.5,69.1,30.16,ENE,75,2.0,6.0,89,0.00,,,0.01,VWS V14.01,2013-01-08 22:51:00,
2013-01-08 16:56:00,72.4,69.3,30.16,ENE,67,4.0,6.0,90,0.00,,,0.01,VWS V14.01,2013-01-08 22:56:00,
2013-01-08 17:00:00,72.3,69.2,30.16,East,90,1.0,6.0,90,0.00,,,0.01,VWS V14.01,2013-01-08 23:00:00,
2013-01-08 17:01:00,72.3,69.5,30.16,East,88,2.0,2.0,91,0.00,,,0.01,VWS V14.01,2013-01-08 23:01:00,
2013-01-08 17:06:00,72.2,69.4,30.16,East,84,0.0,2.0,91,0.00,,,0.01,VWS V14.01,2013-01-08 23:06:00,
2013-01-08 17:10:00,72.1,69.7,30.16,ENE,71,2.0,4.0,92,0.00,,,0.01,VWS V14.01,2013-01-08 23:10:00,
2013-01-08 17:15:00,72.0,69.6,30.16,East,91,2.0,4.0,92,0.00,,,0.01,VWS V14.01,2013-01-08 23:15:00,
2013-01-08 17:20:00,72.0,69.6,30.16,East,92,3.0,4.0,92,0.00,,,0.01,VWS V14.01,2013-01-08 23:20:00,
2013-01-08 17:25:00,71.9,69.4,30.16,East,88,2.0,4.0,92,0.00,,,0.01,VWS V14.01,2013-01-08 23:25:00,
2013-01-08 17:30:00,71.7,69.3,30.16,East,91,2.0,4.0,92,0.00,,,0.01,VWS V14.01,2013-01-08 23:30:00,
2013-01-08 17:35:00,71.6,69.5,30.17,ENE,61,2.0,5.0,93,0.00,,,0.01,VWS V14.01,2013-01-08 23:35:00,
2013-01-08 17:40:00,71.5,69.4,30.17,East,88,2.0,5.0,93,0.00,,,0.01,VWS V14.01,2013-01-08 23:40:00,
2013-01-08 17:45:00,71.4,69.3,30.16,East,91,2.0,5.0,93,0.00,,,0.01,VWS V14.01,2013-01-08 23:45:00,
2013-01-08 17:50:00,71.4,69.3,30.17,East,93,2.0,5.0,93,0.00,,,0.01,VWS V14.01,2013-01-08 23:50:00,
2013-01-08 17:55:00,71.4,69.3,30.17,East,97,2.0,5.0,93,0.00,,,0.01,VWS V14.01,2013-01-08 23:55:00,
2013-01-08 18:00:00,71.3,69.2,30.16,East,82,1.0,2.0,93,0.00,,,0.01,VWS V14.01,2013-01-09 00:00:00,
2013-01-08 18:05:00,71.2,69.1,30.16,ENE,71,1.0,2.0,93,0.00,,,0.01,VWS V14.01,2013-01-09 00:05:00,
2013-01-08 18:10:00,71.1,69.0,30.17,ENE,77,2.0,3.0,93,0.00,,,0.01,VWS V14.01,2013-01-09 00:10:00,
2013-01-08 18:15:00,71.1,69.0,30.17,ENE,70,2.0,3.0,93,0.00,,,0.01,VWS V14.01,2013-01-09 00:15:00,
2013-01-08 18:20:00,71.2,69.1,30.17,ENE,70,2.0,4.0,93,0.00,,,0.01,VWS V14.01,2013-01-09 00:20:00,
2013-01-08 18:25:00,71.2,69.1,30.17,East,88,2.0,4.0,93,0.00,,,0.01,VWS V14.01,2013-01-09 00:25:00,
2013-01-08 18:30:00,71.4,69.3,30.17,East,80,3.0,5.0,93,0.00,,,0.01,VWS V14.01,2013-01-09 00:30:00,
2013-01-08 18:35:00,71.5,69.7,30.17,ENE,70,2.0,5.0,94,0.00,,,0.01,VWS V14.01,2013-01-09 00:35:00,
2013-01-08 18:40:00,71.6,69.8,30.17,East,84,3.0,5.0,94,0.00,,,0.01,VWS V14.01,2013-01-09 00:40:00,
2013-01-08 18:45:00,71.6,69.8,30.17,East,100,2.0,5.0,94,0.00,,,0.01,VWS V14.01,2013-01-09 00:45:00,
2013-01-08 18:50:00,71.7,69.9,30.17,ENE,72,2.0,5.0,94,0.00,,,0.01,VWS V14.01,2013-01-09 00:50:00,
2013-01-08 18:55:00,71.8,70.0,30.17,ESE,106,1.0,5.0,94,0.00,,,0.01,VWS V14.01,2013-01-09 00:55:00,
2013-01-08 19:00:00,71.9,70.1,30.17,East,82,3.0,3.0,94,0.00,,,0.01,VWS V14.01,2013-01-09 01:00:00,
2013-01-08 19:05:00,71.9,70.1,30.17,East,88,2.0,3.0,94,0.00,,,0.01,VWS V14.01,2013-01-09 01:05:00,
2013-01-08 19:10:00,72.1,70.6,30.17,East,93,2.0,4.0,95,0.00,,,0.01,VWS V14.01,2013-01-09 01:10:00,
2013-01-08 19:15:00,72.2,70.7,30.17,SE,127,1.0,4.0,95,0.00,,,0.01,VWS V14.01,2013-01-09 01:15:00,
2013-01-08 19:20:00,72.3,70.8,30.17,ESE,106,2.0,4.0,95,0.00,,,0.01,VWS V14.01,2013-01-09 01:20:00,
2013-01-08 19:25:00,72.4,70.9,30.17,ESE,112,2.0,5.0,95,0.00,,,0.01,VWS V14.01,2013-01-09 01:25:00,
2013-01-08 19:30:00,72.4,71.2,30.17,SSE,156,3.0,6.0,96,0.00,,,0.01,VWS V14.01,2013-01-09 01:30:00,
2013-01-08 19:35:00,72.4,71.2,30.17,ESE,113,4.0,6.0,96,0.00,,,0.01,VWS V14.01,2013-01-09 01:35:00,
2013-01-08 19:40:00,72.4,71.2,30.17,ESE,120,4.0,6.0,96,0.00,,,0.01,VWS V14.01,2013-01-09 01:40:00,
2013-01-08 19:45:00,72.6,71.4,30.17,SE,145,5.0,8.0,96,0.00,,,0.01,VWS V14.01,2013-01-09 01:45:00,
2013-01-08 19:50:00,72.7,71.5,30.17,East,81,3.0,8.0,96,0.00,,,0.01,VWS V14.01,2013-01-09 01:50:00,
2013-01-08 19:55:00,72.9,71.7,30.17,ESE,106,4.0,8.0,96,0.00,,,0.01,VWS V14.01,2013-01-09 01:55:00,
2013-01-08 20:00:00,73.0,71.5,30.17,SE,124,2.0,7.0,95,0.00,,,0.01,VWS V14.01,2013-01-09 02:00:00,
2013-01-08 20:05:00,73.0,71.5,30.18,ESE,106,5.0,7.0,95,0.00,,,0.01,VWS V14.01,2013-01-09 02:05:00,
2013-01-08 20:10:00,73.0,71.5,30.18,SE,129,6.0,8.0,95,0.00,,,0.01,VWS V14.01,2013-01-09 02:10:00,
2013-01-08 20:15:00,73.1,71.6,30.18,ESE,113,4.0,8.0,95,0.00,,,0.01,VWS V14.01,2013-01-09 02:15:00,
2013-01-08 20:20:00,73.1,71.6,30.18,ESE,107,6.0,8.0,95,0.00,,,0.01,VWS V14.01,2013-01-09 02:20:00,
2013-01-08 20:25:00,73.1,71.6,30.18,SE,134,4.0,8.0,95,0.00,,,0.01,VWS V14.01,2013-01-09 02:25:00,
2013-01-08 20:30:00,73.2,71.7,30.18,ESE,121,6.0,8.0,95,0.00,,,0.01,VWS V14.01,2013-01-09 02:30:00,
2013-01-08 20:35:00,73.2,71.7,30.18,ESE,117,3.0,10.0,95,0.00,,,0.01,VWS V14.01,2013-01-09 02:35:00,
2013-01-08 20:41:00,73.2,71.4,30.18,ESE,114,5.0,11.0,94,0.00,,,0.01,VWS V14.01,2013-01-09 02:41:00,
2013-01-08 20:46:00,73.3,71.5,30.18,ESE,122,5.0,11.0,94,0.00,,,0.01,VWS V14.01,2013-01-09 02:46:00,
2013-01-08 20:51:00,73.3,71.5,30.18,East,89,7.0,11.0,94,0.00,,,0.01,VWS V14.01,2013-01-09 02:51:00,
2013-01-08 20:56:00,73.3,71.5,30.18,East,100,9.0,11.0,94,0.00,,,0.01,VWS V14.01,2013-01-09 02:56:00,
2013-01-08 21:00:00,73.4,71.6,30.18,SE,134,3.0,11.0,94,0.00,,,0.01,VWS V14.01,2013-01-09 03:00:00,
2013-01-08 21:01:00,73.4,71.6,30.19,ENE,64,6.0,8.0,94,0.00,,,0.01,VWS V14.01,2013-01-09 03:01:00,
2013-01-08 21:06:00,73.5,71.4,30.19,ESE,121,3.0,9.0,93,0.00,,,0.01,VWS V14.01,2013-01-09 03:06:00,
2013-01-08 21:12:00,73.6,71.5,30.18,East,101,10.0,12.0,93,0.00,,,0.01,VWS V14.01,2013-01-09 03:12:00,
2013-01-08 21:17:00,73.7,71.6,30.18,East,86,6.0,12.0,93,0.00,,,0.01,VWS V14.01,2013-01-09 03:17:00,
2013-01-08 21:22:00,73.7,71.6,30.18,ESE,103,8.0,12.0,93,0.00,,,0.01,VWS V14.01,2013-01-09 03:22:00,
2013-01-08 21:27:00,73.7,71.6,30.18,ESE,102,9.0,13.0,93,0.00,,,0.01,VWS V14.01,2013-01-09 03:27:00,
2013-01-08 21:30:00,73.7,71.6,30.18,East,90,9.0,13.0,93,0.00,,,0.01,VWS V14.01,2013-01-09 03:30:00,
2013-01-08 21:32:00,73.7,71.6,30.18,East,87,5.0,13.0,93,0.00,,,0.01,VWS V14.01,2013-01-09 03:32:00,
2013-01-08 21:37:00,73.7,71.2,30.18,East,98,6.0,13.0,92,0.00,,,0.01,VWS V14.01,2013-01-09 03:37:00,
2013-01-08 21:42:00,73.6,71.1,30.18,ESE,121,4.0,13.0,92,0.00,,,0.01,VWS V14.01,2013-01-09 03:42:00,
2013-01-08 21:47:00,73.6,71.1,30.19,ESE,104,7.0,13.0,92,0.00,,,0.01,VWS V14.01,2013-01-09 03:47:00,
2013-01-08 21:52:00,73.6,71.1,30.19,ENE,77,8.0,13.0,92,0.00,,,0.01,VWS V14.01,2013-01-09 03:52:00,
2013-01-08 21:57:00,73.6,71.1,30.19,ESE,120,7.0,13.0,92,0.00,,,0.01,VWS V14.01,2013-01-09 03:57:00,
2013-01-08 22:00:00,73.3,70.8,30.18,East,89,7.0,11.0,92,0.00,,,0.00,VWS V14.01,2013-01-09 04:00:00,
2013-01-08 22:02:00,73.6,71.1,30.19,East,99,7.0,11.0,92,0.00,,,0.01,VWS V14.01,2013-01-09 04:02:00,
2013-01-08 22:07:00,73.6,71.1,30.19,SE,138,3.0,12.0,92,0.00,,,0.01,VWS V14.01,2013-01-09 04:07:00,
2013-01-08 22:12:00,73.6,71.1,30.19,SE,138,6.0,12.0,92,0.00,,,0.01,VWS V14.01,2013-01-09 04:12:00,
2013-01-08 22:17:00,73.5,71.0,30.19,ESE,107,3.0,12.0,92,0.00,,,0.01,VWS V14.01,2013-01-09 04:17:00,
2013-01-08 22:22:00,73.5,71.0,30.19,ESE,121,6.0,12.0,92,0.00,,,0.01,VWS V14.01,2013-01-09 04:22:00,
2013-01-08 22:27:00,73.4,70.9,30.19,SSE,154,4.0,12.0,92,0.00,,,0.01,VWS V14.01,2013-01-09 04:27:00,
2013-01-08 22:30:00,73.4,70.9,30.19,ESE,122,5.0,12.0,92,0.00,,,0.01,VWS V14.01,2013-01-09 04:30:00,
2013-01-08 22:32:00,73.3,71.2,30.19,ESE,117,8.0,10.0,93,0.00,,,0.01,VWS V14.01,2013-01-09 04:32:00,
2013-01-08 22:37:00,73.4,70.9,30.19,East,101,7.0,11.0,92,0.00,,,0.01,VWS V14.01,2013-01-09 04:37:00,
2013-01-08 22:42:00,73.4,70.9,30.19,East,88,5.0,11.0,92,0.00,,,0.01,VWS V14.01,2013-01-09 04:42:00,
2013-01-08 22:47:00,73.4,70.9,30.19,ESE,115,6.0,11.0,92,0.00,,,0.01,VWS V14.01,2013-01-09 04:47:00,
2013-01-08 22:52:00,73.3,70.8,30.18,ESE,117,9.0,11.0,92,0.00,,,0.01,VWS V14.01,2013-01-09 04:52:00,
2013-01-08 22:57:00,73.3,70.8,30.18,ESE,102,7.0,11.0,92,0.00,,,0.01,VWS V14.01,2013-01-09 04:57:00,
2013-01-08 23:00:00,73.3,70.8,30.18,East,98,4.0,11.0,92,0.00,,,0.00,VWS V14.01,2013-01-09 05:00:00,
2013-01-08 23:01:00,73.3,70.8,30.18,ESE,108,4.0,11.0,92,0.00,,,0.00,VWS V14.01,2013-01-09 05:01:00,
2013-01-08 23:06:00,73.3,70.8,30.18,East,96,9.0,11.0,92,0.00,,,0.00,VWS V14.01,2013-01-09 05:06:00,
2013-01-08 23:11:00,73.3,70.8,30.19,ESE,123,3.0,11.0,92,0.00,,,0.00,VWS V14.01,2013-01-09 05:11:00,
2013-01-08 23:16:00,73.3,71.2,30.19,East,94,4.0,12.0,93,0.00,,,0.00,VWS V14.01,2013-01-09 05:16:00,
2013-01-08 23:21:00,73.3,71.2,30.19,SE,134,4.0,12.0,93,0.00,,,0.00,VWS V14.01,2013-01-09 05:21:00,
2013-01-08 23:26:00,73.2,71.1,30.19,ESE,112,5.0,12.0,93,0.00,,,0.00,VWS V14.01,2013-01-09 05:26:00,
2013-01-08 23:30:00,73.2,71.1,30.19,ESE,102,7.0,12.0,93,0.00,,,0.00,VWS V14.01,2013-01-09 05:30:00,
2013-01-08 23:33:00,73.2,71.1,30.19,SE,136,5.0,7.0,93,0.00,,,0.00,VWS V14.01,2013-01-09 05:33:00,
2013-01-08 23:38:00,73.2,71.1,30.19,ESE,123,5.0,10.0,93,0.00,,,0.00,VWS V14.01,2013-01-09 05:38:00,
2013-01-08 23:43:00,73.3,71.2,30.19,East,86,6.0,12.0,93,0.00,,,0.00,VWS V14.01,2013-01-09 05:43:00,
2013-01-08 23:48:00,73.2,71.1,30.19,SE,133,6.0,12.0,93,0.00,,,0.00,VWS V14.01,2013-01-09 05:48:00,
2013-01-08 23:53:00,73.1,71.0,30.19,ESE,105,7.0,12.0,93,0.00,,,0.00,VWS V14.01,2013-01-09 05:53:00,
2013-01-08 23:58:00,73.1,71.3,30.19,ESE,116,7.0,12.0,94,0.00,,,0.00,VWS V14.01,2013-01-09 05:58:00,